Погода в Солихалле

Великобритания     52°25′40″N   1°47′52″W
темп.,
°C
ветер,
м/с
пор.,
м/с
влажн.,
%
обл.,
%
осадки,
мм/ч
давл.,
гПа
погр.,
м
12 апреля, пн
пн1201:00+1зсз277327 0.0 1026254
04:00+1зсз267773 0.0 1026249
07:000зсз148854 0.0 1027136
10:00+5сз34575 0.1 10281204
13:00+8сз3535100 0.2 10292433
16:00+9сз463198 0.0 10282490
19:00+7зсз345247 0.1 10301058
22:00+4сз255599 0.0 1031161
13 апреля, вт
вт1301:00+3сз136699 0.0 1032118
04:00+4зсз126799 0.0 1032138
07:00+4з12728 0.0 1033134
10:00+7зсз23577 0.0 1033882
13:00+9сз125199 0.1 10331382
16:00+11ссз235040 0.5 10311502
19:00+9с235919 0.8 1031745
22:00+5св117531 0.1 103324
14 апреля, ср
ср1401:00+6ссв117480 0.1 103348
04:00+3с22835 0.0 103364
07:00+2ссв13835 0.0 1033103
10:00+7всв23615 0.0 1034591
13:00+10всв334243 0.0 10331867
16:00+11св343695 0.0 10322163
19:00+9всв33487 0.0 10321192
22:00+4вюв36765 0.0 1034213
15 апреля, чт
чт1501:00+2в23795 0.0 1034132
04:00+1св14835 0.0 1034135
07:00+1св24835 0.0 1034159
10:00+5св35605 0.0 1034950
13:00+9всв354487 0.0 10321838
16:00+9всв344690 0.1 10311842
19:00+7св355710 0.1 10301188
22:00+3всв39745 0.0 1032354
16 апреля, пт
пт1601:00+1всв26830 0.0 1032182
04:000всв24892 0.0 1032121
07:000св24884 0.0 1032118
10:00+6всв34595 0.0 1032789
13:00+10всв34405 0.0 10321745
16:00+10св564796 0.0 10301929
19:00+8всв47565 0.0 10301255
22:00+4св410740 0.0 1031539